Hourly Data Report for September 06, 2017

All times are specified in Local Standard Time (LST). Add 1 hour to adjust for Daylight Saving Time where and when it is observed.

HALL BEACH A
NUNAVUT

68°46'33.000" N
81°14'33.000" W
9.10 m
2402354
71293
YUX

Download Data

Hourly Data (September 2017)
Hourly Data Report for September 6, 2017
Temp Definition
°C
Dew Point Temp Definition
°C
Rel Hum Definition
%
Wind Dir Definition
10's deg

Wind Spd Definition
km/h
Visibility Definition
km
Stn Press Definition
kPa
Hmdx Definition


Wind Chill Definition


Weather Definition


TIME
00:00 Legend Double Dagger -0.4 -2.6 85 33 22 16.1 101.28   -6 LegendNANA
01:00 Legend Double Dagger -0.7 -2.8 86 34 24 16.1 101.30   -7 LegendNANA
02:00 Legend Double Dagger -0.7 -2.9 85 34 26 16.1 101.32   -7 LegendNANA
03:00 Legend Double Dagger -0.4 -3.7 78 34 30 16.1 101.33   -7 LegendNANA
04:00 Legend Double Dagger -0.4 -4.4 74 34 30 16.1 101.35   -7 LegendNANA
05:00 Legend Double Dagger -0.3 -4.0 76 35 24 16.1 101.36   -6 LegendNANA
06:00 Legend Double Dagger -0.5 -4.5 74 35 24 16.1 101.38   -6 LegendNANA
07:00 Legend Double Dagger -0.1 -4.1 75 34 26 16.1 101.39   -6 LegendNANA
08:00 Legend Double Dagger 0.0 -4.1 74 36 22 16.1 101.40   -6 LegendNANA
09:00 Legend Double Dagger -0.1 -4.1 75 35 24 16.1 101.41   -6 LegendNANA
10:00 Legend Double Dagger -0.1 -4.2 74 34 24 16.1 101.40   -6 LegendNANA
11:00 Legend Double Dagger -0.2 -4.3 74 33 22 16.1 101.41   -6 LegendNANA
12:00 Legend Double Dagger -0.3 -4.7 72 31 22 16.1 101.42   -6 LegendNANA
13:00 Legend Double Dagger 0.0 -4.2 73 32 24 16.1 101.45   -6 LegendNANA
14:00 Legend Double Dagger 0.3 -3.6 75 33 26 16.1 101.46     LegendNANA
15:00 Legend Double Dagger 0.3 -3.6 75 34 28 16.1 101.48     LegendNANA
16:00 Legend Double Dagger 0.2 -3.7 75 33 24 16.1 101.50     LegendNANA
17:00 Legend Double Dagger 0.1 -4.0 74 33 26 16.1 101.53     LegendNANA
18:00 Legend Double Dagger -0.1 -4.1 74 32 28 16.1 101.53   -6 LegendNANA
19:00 Legend Double Dagger -0.3 -4.0 76 34 24 16.1 101.55   -6 LegendNANA
20:00 Legend Double Dagger -0.6 -4.2 77 34 21 16.1 101.57   -6 LegendNANA
21:00 Legend Double Dagger -0.8 -5.0 73 32 22 16.1 101.59   -7 LegendNANA
22:00 Legend Double Dagger -0.8 -4.9 74 33 18 16.1 101.60   -6 LegendNANA
23:00 Legend Double Dagger -0.8 -4.5 76 33 18 16.1 101.60   -6 LegendNANA

Notes on Data Quality.

Legend

  • E = Estimated
  • M = Missing
  • NA = Not Available
  • ‡ = Partner data that is not subject to review by the National Climate Archives
Date modified: